Content
SEND FEEDBACK

Daily
Averages
Monthly
Summary
United States of America

ANDERSON, CALIFORNIA


Home > North America > United States > California
Elevation: 500 feet     Latitude: 40 30N     Longitude: 122 22W

WEATHER
 
SELECT A DAY
Number of Records: 189,111;   Date Range: 1/1/95 - 9/30/14
 
SHARE

PRINT THIS DATA

[ ← Previous Day ]
WEATHER ALMANAC - JANUARY 31, 2013
[ Next Day → ]
[ °C ]   °F
Weather ElementAverageHighLow
Temperature46.3 °F64 °F (2:53 pm)33.1 °F (6:53 am)
Dewpoint34.5 °F37.9 °F (5:53 pm)28.9 °F (7:53 am)
Humidity66.7 %89 % (6:53 am)35 % (2:53 pm)
Barometer30.25 in30.30 in (2:53 am)30.19 in (4:53 pm)
Wind Speed0.9 mph4.6 mph (1:53 am)
Weather ElementAverage
Visibility10 mi
Wind DirectionNNE (20.9 °)

Weather ElementTotal
Precipitation---
Heating Degree Days16.5 (Base 65)
Averaged from 23 records on January 31, 2013
WEATHER CONDITIONS BREAKOUT
WIND DIRECTION BREAKOUT
WEATHER BY HOUR - JANUARY 31, 2013
[ °C ]   °F
Local TimeTemperatureDewpointHumidityBarometerVisibilityWind DirectionWind SpeedGust SpeedPrecipitationEventsConditions
1:53 AM39.9 °F34.0 °F79 %30.29 in10.0 miNE (40°)4.6 mphClear
2:53 AM39.9 °F33.1 °F77 %30.30 in10.0 miCalmClear
3:53 AM35.1 °F30.0 °F82 %30.29 in10.0 miNorth (10°)3.5 mphClear
4:53 AM35.1 °F30.9 °F85 %30.28 in10.0 miCalmClear
5:53 AM35.1 °F30.9 °F85 %30.27 in10.0 miNorth (360°)4.6 mphClear
6:53 AM33.1 °F30.0 °F89 %30.27 in10.0 miCalmClear
7:53 AM33.1 °F28.9 °F85 %30.28 in10.0 miCalmClear
8:53 AM37.0 °F33.1 °F86 %30.30 in10.0 miCalmClear
9:53 AM45.0 °F36.0 °F71 %30.30 in10.0 miCalmClear
10:53 AM51.1 °F36.0 °F56 %30.30 in10.0 miCalmClear
11:53 AM57.0 °F37.0 °F47 %30.27 in10.0 miCalmClear
12:53 PM59.0 °F37.0 °F44 %30.24 in10.0 miENE (60°)3.5 mphClear
1:53 PM61.0 °F37.0 °F41 %30.21 in10.0 miCalmClear
2:53 PM64.0 °F36.0 °F35 %30.20 in10.0 miCalmClear
3:53 PM63.0 °F36.0 °F37 %30.20 in10.0 miCalmClear
4:53 PM62.1 °F37.0 °F39 %30.19 in10.0 miCalmClear
5:53 PM54.0 °F37.9 °F55 %30.20 in10.0 miCalmClear
6:53 PM50.0 °F37.9 °F63 %30.22 in10.0 miCalmClear
7:53 PM46.9 °F37.0 °F68 %30.23 in10.0 miCalmClear
8:53 PM44.6 °F35.6 °F71 %30.23 in10.0 miCalmClear
9:53 PM42.1 °F35.1 °F76 %30.24 in10.0 miCalmClear
10:53 PM39.9 °F34.0 °F79 %30.24 in10.0 miNorth (10°)3.5 mphClear
11:53 PM37.9 °F33.1 °F83 %30.24 in10.0 miCalmClear
Hourly data recorded from KRDD, located miles away from Anderson, California







STORIES FROM OUR PARTNERS